Theta_e
317 309 308 310 311 310 308 310 313 312 314 316 315 316 317 317 317 318 317 317 319 319 319 319 318 317 319 322 323 325 327 326 327 328 327 325 327 327 325 324 323 323 325 325 324 324 323 319 317 316 315 313 314 316 317 317 317 318 318 318 317 318 319
314 307 307 307 307 308 307 309 316 316 313 314 316 316 317 318 317 317 319 319 318 320 321 321 319 318 319 319 320 323 325 326 327 328 327 327 328 327 324 324 324 324 325 325 325 324 322 319 317 316 315 314 314 315 315 316 316 317 317 317 317 317 318
314 308 308 307 307 310 309 309 315 319 316 316 316 316 317 317 316 317 319 319 317 318 320 320 317 316 317 317 319 323 326 327 327 327 327 328 328 326 326 325 325 325 324 323 324 322 319 318 318 316 316 316 315 315 314 314 314 314 315 316 316 316 317
314 308 307 307 309 313 314 313 315 318 319 319 318 316 315 314 314 316 318 316 316 316 317 317 317 317 319 318 319 322 325 326 326 325 325 326 328 326 326 325 323 322 321 321 320 319 317 317 317 317 316 315 315 315 314 313 312 312 312 313 313 313 313
313 308 308 308 310 312 312 312 314 317 319 319 319 317 312 312 314 315 316 316 316 315 316 316 317 318 320 320 320 320 322 322 322 322 323 325 326 325 323 322 320 319 318 318 317 316 315 316 317 317 315 314 314 314 313 312 312 311 311 310 311 311 311
313 310 310 308 310 312 310 312 316 318 319 320 319 316 311 311 315 316 316 317 316 314 315 316 316 318 319 319 319 319 320 321 322 322 322 322 322 320 318 316 315 314 313 312 313 314 314 315 316 316 314 314 314 313 313 312 311 310 309 308 309 310 310
312 309 310 308 309 312 312 314 317 319 320 319 317 312 308 308 310 310 310 312 313 314 315 315 316 318 319 319 319 319 320 320 318 317 316 314 312 311 310 310 309 308 307 307 309 310 311 313 315 315 315 315 313 313 312 312 311 310 308 306 306 307 308
312 309 309 306 305 308 309 312 317 319 319 316 311 306 305 306 305 305 305 306 308 310 312 313 314 314 315 317 317 317 316 313 309 308 307 306 305 304 305 306 306 305 305 306 308 310 311 312 314 314 315 314 313 312 312 312 311 310 307 306 305 305 305
314 311 310 306 305 305 305 307 312 316 313 309 307 305 305 305 305 305 305 305 305 306 307 307 309 308 308 311 310 309 309 306 304 305 304 304 304 304 305 306 306 306 306 308 309 309 310 312 313 314 315 314 313 313 312 311 310 309 307 306 305 305 304
315 313 311 306 305 305 304 304 307 309 307 305 306 306 306 306 306 305 305 305 305 305 305 305 305 306 305 306 305 305 305 305 304 304 304 304 305 306 307 308 309 309 309 309 309 307 308 310 312 314 314 314 313 314 313 313 312 309 307 306 306 305 304
316 314 309 306 305 305 305 305 305 305 305 305 306 306 306 306 306 305 306 306 305 305 305 304 304 305 304 304 304 304 304 304 304 304 305 307 308 308 310 310 311 311 310 310 310 309 308 309 311 312 313 313 314 314 313 313 313 311 308 307 306 305 304
317 314 310 308 308 306 306 306 305 305 305 305 306 305 306 306 305 306 306 305 305 305 304 305 305 304 304 304 304 304 304 304 304 305 307 309 310 310 311 311 311 312 311 311 311 311 311 311 312 312 313 314 314 314 314 314 313 312 309 308 307 306 305
319 316 314 312 310 309 311 308 305 305 305 305 306 306 306 306 306 306 306 306 306 305 304 305 305 304 304 304 305 305 305 305 306 306 308 309 309 310 310 311 311 311 312 312 312 312 312 312 313 313 313 313 313 314 315 314 313 311 310 310 308 306 306
320 319 317 315 312 312 314 309 305 305 306 305 306 306 306 307 307 308 308 308 307 306 305 305 305 306 306 305 305 306 306 307 307 307 307 308 308 309 309 309 310 310 311 311 311 312 312 312 312 313 313 313 313 313 314 314 313 311 312 312 308 307 309
321 320 318 315 313 314 314 310 306 306 306 306 306 306 306 306 307 308 310 311 310 308 307 306 306 309 309 307 306 306 307 309 309 307 306 307 307 308 308 308 308 308 308 308 309 311 311 311 312 313 313 313 312 312 313 313 313 312 311 312 310 308 310
321 320 319 315 313 313 314 312 309 307 306 307 306 306 307 306 306 307 308 310 310 308 308 307 307 309 310 311 311 310 310 311 311 310 309 309 309 308 308 309 309 309 308 307 308 310 310 311 311 311 311 311 311 311 311 312 313 312 311 310 309 307 309
320 319 318 316 313 313 313 313 313 309 306 307 307 307 307 307 307 307 306 307 307 307 308 307 307 308 310 312 313 313 313 313 313 314 314 313 312 311 311 312 312 312 312 310 310 310 309 310 311 311 311 311 310 310 311 312 313 312 310 310 308 306 308
319 317 318 317 315 314 312 311 314 313 310 308 308 308 308 307 307 307 307 307 307 307 308 308 309 310 311 311 312 313 314 314 315 315 315 315 314 314 314 314 314 314 315 314 313 312 311 311 311 312 312 311 311 311 311 312 312 312 311 310 309 308 308
320 318 318 317 316 315 312 310 312 315 315 312 310 309 309 309 308 308 308 308 309 309 309 310 312 313 314 314 314 314 314 315 315 315 316 316 316 315 315 315 315 315 316 316 315 314 314 313 312 311 312 311 311 311 312 312 313 312 312 311 310 310 310
322 321 319 318 318 317 315 313 312 314 315 316 315 313 312 312 311 310 309 310 311 311 311 312 313 314 315 317 317 316 316 316 316 316 316 316 316 316 316 316 316 316 316 316 315 315 315 315 314 312 312 311 310 311 312 312 312 313 313 312 312 311 311
323 322 320 319 319 318 317 316 314 314 315 315 317 317 316 315 315 314 312 311 312 312 312 313 314 314 315 316 317 316 316 317 317 317 317 317 316 316 315 315 315 315 315 315 315 315 315 315 315 314 313 312 311 310 311 311 312 313 313 313 313 312 312
322 322 321 319 320 320 319 317 316 315 315 315 316 317 317 318 318 317 315 314 313 312 312 313 315 315 316 316 317 316 316 317 317 318 318 318 318 317 316 315 315 314 315 315 315 315 315 315 315 315 313 313 312 311 311 310 311 312 312 312 312 312 312
322 322 321 320 320 321 320 319 317 316 315 315 315 316 317 318 318 318 317 317 315 314 313 314 315 315 316 316 316 317 317 317 317 317 317 317 318 318 317 317 316 315 314 315 315 315 316 315 316 315 314 313 312 311 310 310 310 311 311 312 312 312 311
322 322 322 322 322 321 321 320 319 317 317 316 316 316 316 316 317 317 318 318 317 316 315 315 315 315 315 315 315 315 315 315 316 315 315 316 316 317 317 318 318 316 314 315 315 315 316 316 316 316 315 315 314 312 310 309 310 310 310 311 311 311 310
322 322 322 322 322 322 321 321 320 319 318 317 316 316 316 316 317 317 317 317 316 316 316 315 315 315 315 315 314 314 313 313 313 312 313 315 314 315 316 316 314 313 312 312 313 314 315 316 317 317 316 316 316 314 311 309 309 309 309 309 310 310 309
320 321 321 321 321 322 321 321 321 320 320 319 318 317 316 316 316 317 317 316 315 315 316 316 316 315 315 315 314 313 313 314 313 313 313 312 309 308 308 307 307 306 306 305 306 307 309 311 313 316 317 317 317 316 312 308 308 308 307 307 308 308 308
319 319 320 320 320 320 320 320 321 320 320 320 319 318 317 316 315 316 315 315 315 316 316 316 316 315 314 314 313 313 314 315 315 313 310 307 304 303 302 302 303 303 302 302 302 303 305 305 307 312 316 317 316 314 310 308 308 307 306 306 306 306 307
316 318 319 319 319 319 320 320 320 320 320 320 319 318 318 317 316 315 315 315 316 317 317 316 315 314 313 312 313 315 315 315 312 309 305 303 303 303 302 302 302 302 302 302 302 302 303 305 307 312 315 316 315 313 310 308 307 306 305 305 305 305 306
313 315 317 318 318 319 319 320 320 320 320 320 319 318 317 317 317 317 317 317 317 318 318 315 314 313 312 312 314 315 313 311 308 305 304 303 303 302 302 302 302 302 302 302 302 302 303 306 310 313 314 313 312 311 309 307 306 305 305 305 305 305 305
310 312 314 316 317 317 318 319 319 319 319 319 319 318 317 317 318 318 318 317 317 318 318 315 314 314 312 312 314 313 310 308 306 304 304 303 303 302 303 302 302 302 301 301 302 302 303 306 310 311 311 310 309 307 307 306 305 305 305 305 305 305 305
309 310 311 313 314 315 317 318 319 319 319 318 318 318 318 318 318 318 318 317 317 317 316 315 314 313 313 314 313 311 310 309 306 304 304 304 303 303 303 302 302 302 302 301 302 302 302 305 308 309 308 307 306 305 305 305 305 305 305 305 304 304 304
308 308 309 310 311 313 315 316 317 318 318 318 318 318 318 318 317 317 317 317 316 315 314 314 314 313 314 314 311 308 310 309 306 305 305 304 304 303 303 302 302 302 301 301 301 302 302 303 306 307 307 306 306 306 305 305 305 305 305 304 304 304 304
306 307 308 308 309 310 312 314 316 317 317 317 317 317 317 317 317 316 316 315 315 315 314 314 314 314 313 311 308 308 311 310 308 307 305 303 303 302 302 302 302 302 302 302 302 302 302 303 305 306 306 306 306 306 305 305 304 304 304 304 303 303 303
305 305 306 307 307 308 309 311 312 314 315 316 315 315 317 317 316 316 315 314 315 315 314 314 314 312 311 309 307 307 310 310 309 307 306 304 304 303 302 302 302 302 302 302 302 302 302 303 303 304 305 305 305 305 304 304 303 303 303 302 302 301 301
305 305 305 305 306 307 307 308 308 309 312 314 314 314 315 316 316 315 315 315 315 315 314 314 312 310 310 309 306 305 308 310 308 306 306 306 305 304 303 302 302 302 302 301 301 301 302 302 303 303 303 303 303 303 303 303 302 301 300 300 299 298 298
303 304 305 304 305 306 307 308 307 307 309 311 313 314 314 314 314 315 315 314 313 312 311 310 309 309 310 309 304 303 306 306 304 305 306 306 305 303 303 303 303 302 302 302 301 301 301 302 302 303 303 303 303 303 302 301 300 299 298 297 297 297 297
299 302 303 304 304 305 306 307 308 308 309 310 312 313 314 313 314 314 314 313 311 310 309 310 311 310 308 305 303 303 304 303 303 304 305 305 303 303 303 303 303 303 302 302 301 301 301 302 302 302 302 301 301 300 299 298 297 297 296 296 297 297 297
Wind_Speed
7 8 8 8 8 6 6 6 5 5 6 6 4 3 3 2 3 2 2 2 3 3 4 5 6 6 7 7 7 8 8 8 8 8 10 10 9 11 12 11 9 8 8 8 7 8 8 9 9 8 7 5 5 7 7 5 4 3 4 5 6 5 5
7 8 8 7 6 6 6 6 7 6 7 8 6 5 4 3 4 4 3 3 3 5 4 4 5 5 5 5 6 8 7 7 8 8 9 9 8 10 11 11 9 7 8 7 7 6 8 10 10 9 9 8 8 9 9 8 8 7 7 8 9 8 7
6 8 8 7 6 5 5 5 7 7 7 8 8 7 6 5 6 6 5 4 4 5 5 4 4 4 4 5 6 8 8 7 8 9 9 8 8 9 10 10 9 8 8 8 8 7 7 8 9 10 10 9 9 10 10 9 9 9 8 8 9 8 8
5 8 8 8 8 7 6 6 7 8 8 10 9 8 7 7 8 8 7 6 6 6 5 5 5 4 5 5 7 8 8 8 8 9 10 9 9 9 9 8 8 8 7 7 8 7 7 8 10 11 9 9 10 10 10 9 9 8 8 8 8 8 8
3 7 8 9 10 9 8 8 8 9 10 10 10 9 8 9 9 9 8 6 6 6 6 6 6 6 7 6 7 7 8 8 8 9 10 11 10 9 8 7 6 6 6 6 6 6 6 8 10 10 10 9 9 9 9 9 8 8 8 8 8 8 8
2 6 7 9 10 9 9 10 10 10 11 10 10 9 9 10 9 8 8 7 7 7 7 7 7 7 7 7 7 7 7 9 9 9 9 10 10 9 8 7 5 5 6 6 6 6 7 8 9 9 9 8 8 8 7 7 7 7 7 7 7 7 7
5 8 8 9 10 10 10 11 10 10 11 11 10 10 11 11 11 10 9 9 9 9 9 9 7 6 7 7 8 9 9 9 9 9 10 10 10 10 9 8 7 8 8 8 8 7 8 9 9 9 9 8 7 7 7 5 5 5 6 7 7 6 5
8 10 11 11 11 10 11 11 11 10 11 12 12 13 13 13 13 12 12 11 11 11 10 10 8 7 7 8 8 9 10 10 11 11 11 11 11 11 11 11 11 11 11 10 9 8 8 8 8 9 9 9 8 6 6 6 5 5 5 6 6 6 5
11 11 11 11 10 10 10 11 11 11 12 14 14 14 14 14 14 14 13 12 12 12 12 12 10 10 10 9 10 11 12 12 12 12 13 13 14 14 14 14 13 13 13 12 10 10 10 9 9 9 8 7 7 7 6 6 5 5 4 4 5 6 5
13 11 10 10 9 9 10 11 11 11 12 14 15 14 14 13 13 13 12 12 12 12 12 12 11 11 11 11 11 12 13 13 13 13 14 15 15 15 15 15 14 13 13 12 12 13 13 11 9 8 6 5 5 6 6 6 5 4 4 4 4 5 5
14 11 9 9 10 9 9 10 11 11 10 11 12 13 13 12 11 11 11 11 11 11 12 12 12 11 11 11 12 13 14 14 14 15 16 16 17 16 16 15 14 13 13 14 14 14 14 13 10 7 6 4 4 4 6 7 7 5 4 4 4 4 4
15 11 10 9 8 9 7 7 10 10 8 8 9 11 11 11 10 10 10 9 10 11 12 12 13 13 12 12 13 14 14 14 14 15 16 16 17 16 16 16 15 14 14 14 14 15 15 14 11 9 8 7 7 6 6 6 6 6 5 4 5 5 5
18 13 12 12 9 8 7 7 9 10 8 7 7 8 9 9 9 9 9 9 9 10 12 13 14 13 13 13 13 13 13 13 13 13 13 14 14 14 13 13 13 13 12 11 11 12 12 12 11 9 8 8 8 7 6 5 6 7 6 4 5 5 5
22 17 14 15 12 10 9 9 9 10 9 7 6 7 8 8 9 9 9 9 9 10 10 12 13 13 12 13 13 13 13 12 10 10 10 10 10 10 9 9 9 9 9 8 8 8 8 8 9 7 6 6 5 6 5 5 7 6 3 4 4 4 4
22 18 15 16 17 14 12 12 11 10 9 8 8 7 7 8 9 10 10 9 9 9 10 11 13 12 11 12 12 12 12 10 8 8 9 8 7 8 8 7 6 6 6 6 6 5 4 5 5 4 5 4 4 4 4 4 5 4 2 2 3 2 4
20 17 15 17 19 18 17 15 12 11 10 9 9 8 7 8 9 10 11 11 10 10 10 11 12 12 12 11 10 11 11 9 7 7 7 6 6 6 6 6 6 5 5 5 6 5 5 5 4 3 4 4 3 3 3 3 3 3 3 1 2 1 3
18 16 14 17 19 18 19 17 13 12 12 10 9 9 8 9 10 10 11 11 11 11 11 11 12 12 12 12 10 10 10 9 8 6 5 5 5 4 4 5 4 4 5 4 4 4 4 4 4 3 3 3 3 3 1 2 2 2 4 2 2 3 3
17 15 12 15 19 18 20 20 15 13 13 12 11 10 9 10 10 11 11 11 11 11 11 11 11 10 10 10 10 9 8 8 7 6 5 5 5 5 4 4 4 3 3 3 3 3 3 3 3 3 3 2 3 3 2 1 2 2 3 3 2 2 1
15 14 11 12 17 19 22 24 20 15 14 14 14 13 12 11 11 12 12 11 11 12 11 11 11 10 9 8 7 7 7 7 6 5 4 4 5 5 5 5 6 6 4 3 3 4 4 3 3 4 5 4 4 4 4 2 3 2 2 3 3 2 1
13 13 12 12 14 17 20 23 24 21 17 15 15 16 15 15 14 14 13 12 12 13 13 14 14 12 10 8 7 7 8 7 6 5 6 6 6 6 7 8 9 9 8 7 6 7 7 7 6 6 6 6 6 6 6 5 4 4 4 4 4 4 4
13 13 14 15 14 15 17 20 23 25 23 19 17 16 17 18 18 17 17 16 15 16 16 16 17 15 13 12 11 10 10 9 7 7 7 8 8 8 9 10 11 12 12 11 10 10 11 11 10 9 9 10 8 8 7 6 7 7 7 7 7 7 6
13 14 16 17 16 16 17 17 19 22 24 22 19 16 16 18 20 20 21 21 20 18 17 17 18 18 16 14 13 13 11 11 10 9 8 8 9 10 10 11 13 13 14 14 14 14 14 15 14 12 11 13 13 11 9 8 8 9 9 10 10 9 9
12 14 16 18 18 18 18 17 17 18 20 22 22 19 17 18 19 20 22 23 24 23 22 21 21 22 21 18 16 12 9 8 8 8 8 9 9 10 10 10 12 14 15 16 17 17 17 18 18 16 14 16 17 14 11 11 10 9 10 11 11 11 11
10 12 14 16 17 18 18 19 19 20 21 23 25 24 21 20 20 22 22 21 21 23 24 26 26 26 26 22 17 13 11 10 8 6 7 9 9 9 9 9 11 14 15 15 16 17 18 18 19 19 19 20 20 16 13 13 11 10 11 11 11 11 11
7 9 11 12 14 16 18 20 21 23 25 26 26 25 24 22 22 23 21 18 18 19 21 25 28 29 29 28 25 23 22 19 15 11 10 10 11 11 11 11 13 14 14 15 16 16 17 18 19 21 21 22 22 20 18 16 15 13 12 11 11 11 10
6 7 9 10 11 12 13 16 18 21 24 26 27 26 25 23 23 23 22 21 21 21 21 23 26 29 29 29 28 26 23 19 16 14 12 12 13 13 13 13 13 13 14 14 15 15 17 18 18 20 21 22 23 22 21 19 19 18 15 13 12 10 10
5 7 8 10 10 10 12 13 15 16 18 21 23 25 25 25 25 25 25 25 23 22 23 23 23 24 23 23 23 21 18 15 14 12 12 12 11 11 10 10 10 11 11 11 11 12 14 16 16 17 19 20 21 21 21 21 21 20 18 17 14 12 14
4 5 8 10 10 11 12 12 13 14 14 16 18 20 21 24 25 25 24 24 21 21 23 23 20 19 20 21 20 16 14 13 12 11 11 10 9 9 8 8 8 8 8 8 8 10 11 14 15 15 17 18 18 19 21 21 20 19 18 17 17 17 19
5 5 6 9 10 11 11 12 13 14 14 15 15 16 18 19 20 21 21 22 21 21 22 21 20 22 24 23 19 15 14 13 12 12 11 10 9 9 7 6 6 5 6 6 7 8 10 12 13 13 14 14 15 16 17 17 18 17 17 18 18 20 21
8 7 7 8 10 12 11 13 14 14 15 16 16 17 18 18 18 19 19 21 22 21 22 22 23 24 24 24 21 17 16 14 13 13 12 10 9 7 5 4 4 4 4 4 5 5 7 9 9 10 10 10 10 12 14 15 16 17 17 19 20 20 21
8 9 8 9 10 12 12 14 16 16 17 18 17 18 20 21 21 21 21 24 24 22 22 23 25 25 24 24 22 19 16 14 14 14 11 9 8 5 4 4 3 3 4 4 4 4 4 5 6 7 8 8 9 11 14 15 16 18 19 20 21 21 23
10 10 10 10 11 12 12 14 17 19 20 20 19 19 21 23 24 25 25 26 25 23 23 25 24 25 26 25 22 19 15 14 14 13 10 8 6 4 4 3 3 3 4 4 4 4 4 3 4 6 7 7 8 12 16 16 17 19 20 21 22 24 25
14 13 12 12 12 11 12 13 15 18 21 22 22 21 21 23 25 26 28 28 27 26 27 27 26 27 27 25 22 18 15 14 13 11 9 6 5 4 3 3 3 3 4 4 4 4 4 4 5 7 7 6 7 11 16 17 17 18 20 21 23 24 25
18 17 15 14 13 12 12 12 13 15 18 20 22 23 22 21 21 23 27 29 30 30 29 28 29 30 27 23 22 19 15 14 12 11 9 7 5 4 3 3 3 3 3 4 4 5 5 5 7 9 10 10 12 14 16 17 18 19 20 21 21 21 22
22 21 18 16 15 14 14 14 14 14 14 15 18 22 22 20 20 23 26 27 27 28 27 28 30 30 26 22 21 19 16 15 14 12 10 9 9 6 4 3 3 3 4 5 6 6 6 7 8 10 11 13 14 15 15 17 18 18 17 17 17 17 16
26 25 23 21 19 17 16 16 16 15 15 14 17 20 22 23 25 28 28 26 25 25 27 29 28 26 25 22 20 18 17 15 13 11 10 10 8 6 4 4 3 4 5 6 7 7 7 8 9 11 12 13 14 15 16 16 17 16 15 16 16 16 14
29 30 28 26 23 21 18 17 18 17 16 15 16 18 20 23 27 28 27 26 26 25 27 28 26 24 23 21 19 17 16 13 11 11 10 9 7 6 5 4 4 5 6 7 7 7 8 9 10 11 12 13 13 13 13 13 13 14 15 15 14 13 12
Wind_Direction
133 137 137 135 137 135 129 132 132 134 136 131 133 142 141 149 147 144 146 148 163 181 202 208 210 217 210 204 199 188 189 193 188 198 205 197 193 201 199 190 190 185 176 171 156 157 155 132 118 106 101 110 116 110 99 92 95 95 94 82 62 44 40
115 126 131 127 124 122 117 126 131 133 139 135 131 142 141 128 126 120 114 122 139 143 151 169 176 193 195 191 197 187 183 187 188 197 198 187 189 192 181 174 173 172 175 175 170 174 163 143 132 123 116 113 110 104 95 88 86 83 85 83 72 59 54
102 124 131 127 122 122 121 126 134 133 135 135 136 148 150 137 128 122 122 133 140 140 136 137 156 185 184 183 190 179 169 176 183 188 182 171 173 172 165 166 166 164 168 171 172 171 158 148 142 136 131 121 112 104 95 85 79 76 73 74 75 68 63
97 122 125 122 125 133 137 138 141 140 137 137 138 144 145 138 133 130 133 139 140 138 133 133 148 158 157 167 182 177 169 171 179 181 174 162 156 156 157 162 163 160 161 162 165 164 158 154 148 142 139 129 118 110 103 94 85 79 71 66 66 66 65
108 125 123 121 126 132 136 139 139 137 135 132 131 134 135 130 129 133 133 130 129 133 137 140 141 138 138 148 166 177 175 170 173 175 168 156 148 148 150 150 151 152 155 160 162 164 162 158 154 148 143 136 125 117 112 101 89 80 72 67 62 61 62
139 138 134 124 126 128 129 132 133 132 132 128 124 126 130 129 128 131 131 127 128 133 139 142 141 136 130 134 148 156 155 153 154 156 156 152 148 149 147 139 135 142 150 157 159 163 162 158 158 153 147 143 135 130 127 113 97 83 69 64 62 63 65
162 154 147 130 126 127 126 129 130 131 130 127 128 130 131 131 131 133 134 134 136 138 144 148 152 146 126 122 135 140 138 138 140 144 147 148 148 148 147 142 143 151 155 156 153 153 157 160 161 158 151 145 140 137 136 129 110 87 70 61 57 59 66
182 168 155 138 130 129 132 134 131 132 133 131 134 134 133 131 129 128 129 131 135 140 146 149 152 149 133 127 136 142 142 138 137 141 142 144 144 144 145 144 144 147 145 140 136 136 148 157 160 159 153 146 143 139 131 122 107 89 76 61 53 54 52
195 179 158 143 135 132 135 137 136 138 142 140 138 136 134 133 129 126 125 126 129 132 136 140 139 139 138 138 143 147 147 143 141 141 140 140 140 141 141 139 137 138 136 131 132 138 144 146 150 154 152 149 146 141 137 124 103 89 84 67 52 53 54
197 184 162 147 140 135 134 136 136 139 145 145 141 140 138 135 132 130 128 127 128 129 131 133 134 135 137 140 144 146 146 143 141 141 140 139 138 137 137 134 130 128 125 124 129 136 139 137 141 150 154 159 155 148 149 134 110 93 91 88 66 50 54
200 186 167 153 138 131 131 130 126 125 140 147 145 143 141 138 137 133 132 131 130 132 133 134 135 134 134 139 143 144 142 141 141 142 142 140 138 136 134 130 125 121 118 117 118 121 126 127 131 137 138 145 147 141 144 134 121 109 96 95 93 80 69
205 189 186 182 150 132 142 141 123 116 126 142 147 146 142 141 142 138 137 136 134 135 134 134 133 130 131 137 139 139 139 139 141 143 142 140 138 137 135 131 127 125 120 117 117 117 118 120 122 123 124 128 129 126 131 137 134 130 123 109 96 89 84
212 207 216 217 185 151 169 173 144 137 141 139 146 150 145 143 144 143 144 142 141 140 135 132 129 126 128 131 130 131 132 131 133 137 138 138 137 134 132 129 130 131 125 121 124 125 125 126 125 124 124 126 128 126 128 138 137 131 126 112 92 78 71
218 223 234 225 199 173 182 187 165 158 156 146 145 149 149 150 148 148 148 146 147 145 139 134 129 124 126 127 128 129 127 123 124 128 131 134 137 136 133 130 133 135 132 130 130 128 131 133 132 131 130 127 126 124 123 133 136 130 106 89 96 84 59
223 234 242 225 207 198 200 195 181 171 161 153 152 150 155 162 159 159 159 155 155 150 146 143 137 132 132 130 130 130 127 126 128 131 129 128 132 136 137 138 140 143 146 145 138 138 149 143 137 142 140 136 133 126 123 134 142 141 118 69 94 81 40
230 238 239 222 212 215 214 203 189 181 170 162 164 164 169 173 171 173 172 169 166 161 157 155 149 145 143 140 136 135 132 134 135 131 127 130 138 140 135 135 140 143 151 156 153 166 177 160 156 168 158 154 154 145 140 145 148 154 157 115 99 129 348
231 232 229 217 214 218 212 202 194 188 182 178 178 181 187 188 187 188 185 183 178 171 168 166 162 159 156 152 150 147 143 142 143 142 145 155 164 163 150 147 152 147 144 149 157 177 188 173 170 180 174 171 178 188 187 152 148 162 168 160 142 185 296
221 223 225 216 214 212 204 202 204 196 190 193 192 191 197 202 202 201 197 195 189 182 179 175 171 170 169 164 160 158 155 152 152 156 169 179 186 193 190 186 195 189 166 158 165 188 202 192 186 193 195 190 198 233 268 188 168 176 175 181 177 190 251
215 221 227 217 214 215 211 212 214 207 200 203 203 202 206 210 213 211 206 203 198 192 188 184 180 178 174 170 170 171 169 166 165 171 184 200 212 221 226 224 224 227 227 220 218 227 235 229 213 213 216 210 214 242 259 239 221 226 208 206 217 239 248
216 221 225 223 222 225 227 225 223 221 218 216 213 212 213 216 220 220 214 207 202 200 198 196 194 191 181 175 179 187 188 185 189 202 212 223 232 237 243 243 240 241 243 244 244 246 257 264 257 245 240 231 228 245 256 247 237 245 246 243 253 262 265
221 220 223 228 232 236 238 236 232 230 229 229 228 225 222 224 226 229 228 221 215 216 213 206 202 200 196 193 192 195 201 206 217 232 239 244 247 248 252 251 249 249 250 250 249 248 254 263 266 261 257 254 248 251 257 246 238 252 259 263 275 279 278
224 225 229 234 242 248 247 242 238 235 232 232 234 230 228 232 232 231 232 231 229 228 225 218 213 209 204 200 200 203 209 218 228 239 247 256 261 261 262 260 256 253 254 254 253 250 249 252 256 254 254 260 262 260 260 248 241 253 260 267 277 276 279
225 230 235 238 244 252 253 248 242 237 232 231 232 231 232 237 239 236 236 237 236 235 233 232 229 224 217 206 197 200 215 224 228 237 244 254 267 269 268 268 264 259 256 255 255 254 252 252 254 251 246 252 260 262 258 251 247 250 257 268 275 270 276
229 233 237 240 243 245 246 245 243 242 240 236 234 235 236 238 243 243 241 240 239 239 240 239 236 234 232 226 215 220 244 250 245 253 257 261 270 274 270 265 264 265 263 259 257 256 256 256 257 256 250 251 257 258 250 246 246 248 255 266 272 268 273
240 241 241 243 244 240 238 238 240 244 245 245 244 244 245 246 245 241 237 236 239 244 245 243 241 239 242 246 244 244 251 253 251 255 263 267 269 268 267 262 260 264 265 262 261 260 259 257 257 259 258 257 258 255 247 243 242 244 250 260 267 270 273
250 251 248 245 243 242 239 238 238 239 242 247 249 248 248 246 240 236 239 243 247 250 249 246 245 243 244 247 243 238 238 240 242 248 257 266 265 259 259 261 260 262 264 264 265 264 263 263 261 261 263 262 260 254 247 244 245 248 251 254 263 268 268
253 254 254 252 248 246 243 239 238 236 236 241 245 246 247 245 242 242 243 245 247 249 250 250 248 244 236 227 221 221 225 231 237 248 255 257 256 250 248 250 252 257 261 264 266 265 266 268 267 265 266 266 261 251 243 241 244 249 251 252 259 265 269
271 259 259 261 260 254 246 239 237 235 233 236 239 241 242 242 244 243 239 240 240 242 250 249 237 221 204 197 205 216 220 224 232 239 241 237 232 230 229 229 236 247 255 260 264 265 266 269 271 270 267 263 257 248 243 243 244 248 252 257 266 272 279
310 292 271 265 264 263 256 247 240 233 231 234 235 233 230 231 235 234 232 235 234 234 244 238 214 200 195 198 211 217 209 211 219 220 220 219 217 217 217 218 226 240 252 260 263 265 266 267 269 268 263 259 256 252 248 246 247 251 258 267 276 282 287
314 304 291 279 271 269 265 255 246 236 233 236 235 231 228 226 230 231 230 233 233 233 237 226 206 200 204 208 211 205 195 199 207 208 209 209 208 210 211 219 231 241 252 261 262 264 264 261 259 260 259 258 256 253 250 250 254 261 269 276 282 285 288
303 296 292 288 281 277 270 257 250 245 240 240 241 240 238 235 236 235 229 229 233 236 235 225 212 205 208 211 205 194 187 192 199 203 204 202 204 213 224 233 245 253 264 273 276 278 269 253 247 251 255 257 256 255 256 259 264 271 276 281 284 286 288
283 280 277 277 277 276 271 261 254 250 246 246 248 249 249 245 242 240 234 231 236 237 227 220 214 208 207 206 198 186 180 187 195 199 199 202 211 221 231 248 265 275 286 292 294 295 285 260 239 242 251 255 256 260 264 268 274 279 282 285 286 288 290
273 270 268 265 263 265 268 267 261 255 250 249 249 249 251 250 246 242 236 234 236 232 220 215 212 205 199 196 192 184 178 181 188 190 193 203 219 226 236 259 278 290 300 302 303 304 294 275 252 247 249 239 236 255 269 275 278 281 285 287 290 293 296
270 268 265 260 255 254 258 262 266 264 257 251 247 245 245 247 246 239 232 230 231 226 216 210 206 196 188 189 192 186 179 181 184 183 184 188 189 203 236 267 285 298 312 315 315 312 298 282 268 261 257 249 248 260 273 279 281 284 289 292 295 298 299
268 268 267 264 256 251 251 253 256 262 261 251 243 240 238 234 231 226 220 219 225 224 213 203 197 187 181 188 193 185 180 185 187 180 176 172 171 188 237 275 294 309 321 323 319 312 299 285 275 269 264 261 263 268 275 283 288 292 294 296 296 297 296
264 264 266 265 261 256 253 251 250 252 255 251 243 238 235 229 227 228 223 211 210 211 202 194 190 185 183 188 191 186 186 192 191 180 171 171 182 214 261 287 304 316 322 322 318 311 300 286 274 270 268 268 270 273 278 286 291 293 295 295 295 296 296
264 262 262 262 262 260 257 252 248 245 244 244 242 238 234 231 231 236 231 211 198 196 193 187 186 187 189 190 189 188 191 194 191 182 178 187 216 248 270 287 304 314 319 319 315 306 295 282 275 273 274 275 277 281 286 292 294 296 298 299 298 298 296